Copper Mountain, CO

11:37 PM MDT on August 17, 2017 (GMT -0600)
Copper Mountain

Weather History for KCCU - September, 2012

Change the Weather History Date:

Tuesday, September 25, 2012

  Actual Average Record
Temperature  
Mean Temperature 42 °F -  
Max Temperature 50 °F - 66 °F (2014)
Min Temperature 35 °F - 26 °F (2006)
Degree Days  
Heating Degree Days 22    
Month to date heating degree days  
Cooling Degree Days 0    
Month to date cooling degree days  
Moisture  
Dew Point 32 °F    
Average Humidity 78    
Maximum Humidity 87    
Minimum Humidity 50    
Precipitation  
Precipitation 0.01 in - 0.04 in (2016)
Sea Level Pressure  
Sea Level Pressure 30.34 in    
Wind  
Wind Speed 9 mph (SW)    
Max Wind Speed 23 mph    
Max Gust Speed 18 mph    
Visibility 7 miles    
Events Fog , Rain , Snow , Thunderstorm    
T = Trace of Precipitation, MM = Missing Value Source: NWS Daily Summary

Daily Weather History Graph

Daily Weather History Graph

Search for Another Location

Airport or City:

Trip Planner

Search our weather history database for the weather conditions in past years. The results will help you decide how hot, cold, wet, or windy it might be!

Date:

Astronomy

Sep. 25, 2012 Rise Set
Actual Time 6:55 AM MDT 6:55 PM MDT
Civil Twilight 6:28 AM MDT 7:22 PM MDT
Nautical Twilight 5:57 AM MDT 7:53 PM MDT
Astronomical Twilight 5:25 AM MDT 8:25 PM MDT
Moon 4:21 PM MDT (9/25) 2:21 AM MDT (9/25)
Length of Visible Light 12h 53m
Length of Day
12h 00m
Waxing Gibbous, 80% of the Moon is Illuminated
Sep 25
Waxing Gibbous
Sep 29
Full
Oct 8
Last Quarter
Oct 15
New
Oct 21
First Quarter

Hourly Weather History & Observations

Time (MDT) Temp. Windchill Dew Point Humidity Pressure Visibility Wind Dir Wind Speed Gust Speed Precip Events Conditions
12:15 AM 37.4 °F 31.4 °F 33.8 °F 87% 30.40 in 10.0 mi West 8.1 mph - N/A   Overcast
12:35 AM 37.4 °F 31.4 °F 32.0 °F 81% 30.40 in 10.0 mi South 8.1 mph - N/A   Overcast
12:55 AM 37.4 °F - 32.0 °F 81% 30.39 in 10.0 mi Calm Calm - N/A   Overcast
1:15 AM 37.4 °F 30.3 °F 32.0 °F 81% 30.38 in 10.0 mi South 10.4 mph - N/A   Mostly Cloudy
1:35 AM 35.6 °F 27.1 °F 32.0 °F 87% 30.38 in 10.0 mi South 12.7 mph - N/A   Clear
1:55 AM 37.4 °F 29.8 °F 32.0 °F 81% 30.38 in 10.0 mi South 11.5 mph - N/A   Clear
2:15 AM 37.4 °F 29.8 °F 32.0 °F 81% 30.37 in 10.0 mi South 11.5 mph - N/A   Clear
2:35 AM 37.4 °F 29.8 °F 32.0 °F 81% 30.36 in 10.0 mi South 11.5 mph - N/A   Clear
2:55 AM 37.4 °F 28.2 °F 32.0 °F 81% 30.36 in 10.0 mi South 16.1 mph - N/A   Clear
3:15 AM 37.4 °F 28.5 °F 32.0 °F 81% 30.34 in 10.0 mi South 15.0 mph - N/A   Scattered Clouds
3:35 AM 37.4 °F 28.2 °F 32.0 °F 81% 30.34 in 10.0 mi South 16.1 mph - N/A   Scattered Clouds
3:55 AM 37.4 °F 28.2 °F 32.0 °F 81% 30.35 in 10.0 mi South 16.1 mph - N/A   Mostly Cloudy
4:15 AM 37.4 °F 28.5 °F 32.0 °F 81% 30.34 in 10.0 mi South 15.0 mph - N/A   Overcast
4:35 AM 37.4 °F 28.9 °F 32.0 °F 81% 30.34 in 10.0 mi South 13.8 mph - N/A   Overcast
4:55 AM 37.4 °F 28.9 °F 32.0 °F 81% 30.34 in 10.0 mi South 13.8 mph - N/A   Scattered Clouds
5:15 AM 37.4 °F 30.8 °F 32.0 °F 81% 30.33 in 10.0 mi South 9.2 mph - N/A   Clear
5:35 AM 37.4 °F 32.8 °F 30.2 °F 75% 30.34 in 10.0 mi SSW 5.8 mph - N/A   Mostly Cloudy
5:55 AM 37.4 °F 34.9 °F 30.2 °F 75% 30.34 in 10.0 mi SW 3.5 mph - N/A   Overcast
6:15 AM 37.4 °F 32.8 °F 30.2 °F 75% 30.34 in 10.0 mi SSW 5.8 mph - N/A   Overcast
6:35 AM 37.4 °F 34.9 °F 30.2 °F 75% 30.34 in 10.0 mi WSW 3.5 mph - N/A   Overcast
6:55 AM 37.4 °F 32.8 °F 32.0 °F 81% 30.34 in 10.0 mi West 5.8 mph - N/A   Mostly Cloudy
7:15 AM 37.4 °F 33.8 °F 32.0 °F 81% 30.34 in 10.0 mi WSW 4.6 mph - N/A   Mostly Cloudy
7:35 AM 37.4 °F 31.4 °F 32.0 °F 81% 30.34 in 10.0 mi West 8.1 mph - N/A   Overcast
7:55 AM 37.4 °F 34.9 °F 32.0 °F 81% 30.34 in 10.0 mi WSW 3.5 mph - N/A   Mostly Cloudy
8:15 AM 37.4 °F 31.4 °F 32.0 °F 81% 30.35 in 10.0 mi West 8.1 mph - N/A   Overcast
8:35 AM 41.0 °F 38.0 °F 32.0 °F 70% 30.35 in 10.0 mi West 4.6 mph - N/A   Mostly Cloudy
8:55 AM 41.0 °F 37.1 °F 32.0 °F 70% 30.35 in 10.0 mi West 5.8 mph - N/A   Scattered Clouds
9:15 AM 37.4 °F 31.4 °F 32.0 °F 81% 30.36 in 10.0 mi West 8.1 mph - N/A   Scattered Clouds
9:35 AM 41.0 °F 37.1 °F 32.0 °F 70% 30.36 in 10.0 mi WNW 5.8 mph - N/A   Mostly Cloudy
9:55 AM 41.0 °F 36.4 °F 32.0 °F 70% 30.36 in 10.0 mi West 6.9 mph - N/A   Overcast
10:15 AM 44.6 °F 41.4 °F 32.0 °F 61% 30.36 in 10.0 mi West 5.8 mph - N/A   Overcast
10:35 AM 44.6 °F 41.4 °F 32.0 °F 61% 30.36 in 10.0 mi West 5.8 mph - N/A   Overcast
10:55 AM 44.6 °F 41.4 °F 28.4 °F 53% 30.36 in 10.0 mi NW 5.8 mph - N/A   Overcast
11:15 AM 50.0 °F - 32.0 °F 50% 30.35 in 10.0 mi NW 4.6 mph - N/A Thunderstorm Thunderstorm
11:35 AM 44.6 °F 39.7 °F 28.4 °F 53% 30.34 in 10.0 mi West 9.2 mph - N/A Thunderstorm Overcast
11:55 AM 42.8 °F 34.5 °F 28.4 °F 57% 30.33 in 10.0 mi West 18.4 mph - N/A   Overcast
12:15 PM 39.2 °F 33.0 °F 32.0 °F 75% 30.33 in 1.2 mi WSW 9.2 mph 17.3 mph N/A Thunderstorm Unknown
1:15 PM 41.0 °F 33.9 °F 33.8 °F 76% 30.33 in 5.0 mi SSE 12.7 mph 18.4 mph N/A Rain Light Rain
1:35 PM 37.4 °F 28.5 °F 33.8 °F 87% 30.32 in 2.5 mi South 15.0 mph - N/A Snow , Thunderstorm Light Thunderstorms and Snow
1:55 PM 37.4 °F 28.9 °F 33.8 °F 87% 30.31 in 1.2 mi South 13.8 mph - 0.01 in Snow , Thunderstorm Light Thunderstorms and Snow
2:15 PM 41.0 °F 34.7 °F 35.6 °F 81% 30.31 in 10.0 mi South 10.4 mph - N/A   Overcast
2:35 PM 41.0 °F 35.2 °F 33.8 °F 76% 30.31 in 10.0 mi South 9.2 mph - N/A Thunderstorm Thunderstorm
2:55 PM 42.8 °F 38.6 °F 33.8 °F 70% 30.31 in 10.0 mi SSW 6.9 mph - N/A Thunderstorm Overcast
3:15 PM 46.4 °F 44.3 °F 35.6 °F 66% 30.31 in 10.0 mi NW 4.6 mph - N/A   Overcast
3:35 PM 44.6 °F 41.4 °F 33.8 °F 66% 30.30 in 10.0 mi WNW 5.8 mph - N/A Thunderstorm Overcast
4:15 PM 41.0 °F 37.1 °F 33.8 °F 76% 30.30 in 10.0 mi West 5.8 mph - N/A Thunderstorm Scattered Clouds
4:35 PM 41.0 °F 34.7 °F 33.8 °F 76% 30.31 in 10.0 mi West 10.4 mph - N/A Thunderstorm Thunderstorm
4:55 PM 37.4 °F 31.4 °F 32.0 °F 81% 30.31 in 1.0 mi SW 8.1 mph - N/A Snow , Thunderstorm Light Thunderstorms and Snow
5:15 PM 37.4 °F 31.4 °F 32.0 °F 81% 30.32 in 0.8 mi South 8.1 mph - N/A Snow , Thunderstorm Light Thunderstorms and Snow
5:35 PM 37.4 °F 32.8 °F 33.8 °F 87% 30.31 in 0.5 mi South 5.8 mph - N/A Snow , Thunderstorm Thunderstorms and Snow
5:55 PM 37.4 °F 34.9 °F 32.0 °F 81% 30.32 in 2.5 mi NW 3.5 mph - N/A Snow , Thunderstorm Light Thunderstorms and Snow
6:15 PM 37.4 °F 33.8 °F 32.0 °F 81% 30.31 in 3.0 mi West 4.6 mph - N/A Snow , Thunderstorm Light Thunderstorms and Snow
6:55 PM 37.4 °F 26.4 °F 32.0 °F 81% 30.32 in 7.0 mi South 23.0 mph - N/A   Overcast
7:15 PM 37.4 °F 26.6 °F 33.8 °F 87% 30.32 in 7.0 mi South 21.9 mph - N/A Snow , Thunderstorm Light Thunderstorms and Snow
7:35 PM 37.4 °F 27.5 °F 33.8 °F 87% 30.33 in 2.5 mi South 18.4 mph - N/A Snow Light Snow
7:55 PM 37.4 °F 28.9 °F 33.8 °F 87% 30.33 in 3.0 mi South 13.8 mph - N/A Snow Light Snow
8:15 PM 37.4 °F 28.9 °F 33.8 °F 87% 30.33 in 2.0 mi South 13.8 mph - N/A Snow Light Snow
8:35 PM 37.4 °F 32.1 °F 33.8 °F 87% 30.33 in 4.0 mi West 6.9 mph - N/A   Overcast
8:55 PM 37.4 °F 31.4 °F 33.8 °F 87% 30.34 in 0.2 mi West 8.1 mph - N/A Snow , Thunderstorm Light Thunderstorms and Snow
9:15 PM 37.4 °F 32.8 °F 33.8 °F 87% 30.34 in 0.2 mi West 5.8 mph - N/A Fog Fog
9:55 PM 37.4 °F 32.1 °F 33.8 °F 87% 30.34 in 0.2 mi South 6.9 mph - N/A Fog Fog
10:35 PM 37.4 °F 30.3 °F 33.8 °F 87% 30.35 in 0.2 mi South 10.4 mph - N/A Fog Fog
11:15 PM 35.6 °F 28.0 °F 32.0 °F 87% 30.34 in 0.2 mi West 10.4 mph - N/A Snow Light Snow
11:35 PM 35.6 °F 32.8 °F 32.0 °F 87% 30.33 in 0.2 mi WSW 3.5 mph - N/A Snow Light Snow
11:55 PM 35.6 °F - 32.0 °F 87% 30.33 in 0.2 mi Calm Calm - N/A Snow Light Snow